Regional Weather Roundup
Issued by NWS Charleston, SC

Current Version | Previous Version | Graphics & Text | Print | Product List | Glossary On
Versions: 1 2 3 4 5 6 7 8 9 10 11 12 13 14 15 16 17 18 19 20 21 22 23 24 25 26 27 28 29 30 31 32 33 34 35 36 37 38 39 40 41 42 43 44 45 46 47 48 49 50
000
ASUS42 KCHS 200912
RWRCHS

Regional Weather Roundup
National Weather Service Charleston SC
500 AM EDT FRI APR 20 2018

NOTE: "fair" indicates few or no clouds below 12,000 feet with no
significant weather and/or obstructions to visibility.

Not all stations are quality controlled. Use data with caution,
especially dewpoint observations.

SCZ027-030-031-034>040-042>050-201000-
...Southeast South Carolina...

CITY           SKY/WX    TMP DP  RH WIND       PRES   REMARKS
N Charleston   FAIR      50  30  46 NE14G22   30.22R
Waterfront Prk   N/A     54  38  54 N17       30.05R
Mount Pleasant FAIR      50  32  50 N8        30.22R
Johns Island   PTSUNNY   52  30  43 N16G23    30.21R
Pinopolis        N/A     52  36  54 NE17      30.14R
Moncks Corner  FAIR      48  27  43 NE13G20   30.24R
Summerville    FAIR      46  32  57 N8        30.24R
Beaufort MCAS  FAIR      52  36  54 N13G25    30.20R
Beaufort Arpt  FAIR      52  36  54 NE20      30.20R
Hilton Head Is CLOUDY    55  36  47 NE21      30.20R
Walterboro     FAIR      48  32  53 N10       30.23R
Allendale      FAIR      50  28  43 VRB5G16   30.23R

...Southern Midlands and Pee Dee...

CITY           SKY/WX    TMP DP  RH WIND       PRES   REMARKS
Georgetown     FAIR      46  30  53 N15G21    30.24R
Kingstree      FAIR      45  28  53 N7        30.25R
Orangeburg     FAIR      47  29  49 NE12      30.25R
Barnwell       CLOUDY    48  27  43 NE14G20   30.24R
Aiken          FAIR      45  27  49 NE14G21   30.28R
Manning        FAIR      43  28  56 NE7       30.25R
Columbia       FAIR      48  29  47 N7        30.27R
Sumter         FAIR      44  28  54 N9        30.24R
Florence       FAIR      44  30  57 N9        30.26R
Myrtle Beach   FAIR      47  31  53 N15       30.24R
N Myrtle Beach FAIR      47  31  53 N13       30.22R

$$

GAZ063-065-086>088-099>101-113>116-118-119-134>141-150-201000-
...Southeast Georgia...

CITY           SKY/WX    TMP DP  RH WIND       PRES   REMARKS
Savannah Arpt  CLOUDY    55  34  45 NE12      30.19R
Hunter AAF     CLOUDY    57  34  43 NE9       30.16R
Fort Stewart     N/A     57  34  42 NE12      30.15R
Statesboro     FAIR      53  27  36 NE9       30.20R
Sylvania       FAIR      52  34  50 NE10G16   30.22R
Claxton        FAIR      56  34  43 N12G23    30.18R

...CSRA, Central and far Southeast Georgia...

CITY           SKY/WX    TMP DP  RH WIND       PRES   REMARKS
Thomson        FAIR      48  28  45 SE14      30.28R
Augusta-Bush   FAIR      49  26  41 NE17G23   30.24R
Augusta-Daniel FAIR      50  26  39 NE9       30.24R
Swainsboro     FAIR      52  32  46 E14G21    30.19S
Vidalia        FAIR      54  37  54 NE8       30.17R
Eastman        FAIR      51  31  45 NE7       30.20R
Hazlehurst     FAIR      53  38  57 NE3       30.15S
Alma           FAIR      53  40  61 N5        30.14S
Waycross       FAIR      56  39  52 N5        30.14R
Jesup          NOT AVBL
Baxley         CLOUDY    52  37  58 NE8       30.15R
Brunswick      FAIR      61  45  55 NE15      30.15R
Saint Simons   FAIR      62  47  57 NE18G28   30.13R

$$

SCZ027-028-034-036>038-045-046-048>050-GAZ119-141-201000-
...Lake and Supplemental Coastal Observations...

STATION/POSITION TIME  TEMP    WIND        PRES    WAVE   SWELL
                       AIR SEA DIR/SP/G            HT/PER HT/PER/DIR
                 (UTC) (F)     (DEG/KT/KT) (MB)    (FT/S) (FT/S/D)
Winyah Bay       0745   50      10/  7     1023.0
Lake Murray      0820   47      30/  5/  9 1024.0
ACE Basin NERRS  0745   54     350/  4       N/A
Fort Pulaski     0842   57 66   50/ 16/ 22 1021.9R
Sapelo Island    0800   62      40/ 13     1020.0

$$

ANZ835-935-AMZ111-154-330-350-352-354-370-450-454-472-201000-
...C-MAN and Buoy Observations...

STATION/POSITION TIME  TEMP    WIND        PRES    WAVE   SWELL
                       AIR SEA DIR/SP/G            HT/PER HT/PER/DIR
                 (UTC) (F)     (DEG/KT/KT) (MB)    (FT/S) (FT/S/D)
Buoy 41004       0850   58 67   30/ 25/ 33 1021.4R   8/ 7
Buoy 41008       0850   62 65   50/ 25/ 29 1019.7R   5/ 5
Folly Beach CMAN 0800   55      10/ 19/ 22 1022.5R
Capers Nearshore 0808   55 63   30/ 25/ 31 1022.0R
Fripp Nearshore  0808   58 64   40/ 17/ 25 1020.7R


STATION/POSITION TIME  TEMP    WIND        PRES    WAVE   SWELL
                       AIR SEA DIR/SP/G            HT/PER HT/PER/DIR
                 (UTC) (F)     (DEG/KT/KT) (MB)    (FT/S) (FT/S/D)
5E St. Marys GA  0900      66                N/A     3/ 4
Frying Pan Buoy  0850   55 64   20/ 27/ 33 1021.7R   7/ 6   2/ 50/15
Buoy 41025       0900   51 67  360/ 23/ 29 1022.9
Cape Lookout NC  0800           10/ 21/ 30 1023.1R
Buoy 41002       0850   69 71   30/ 19/ 23 1017.2R   6/ 8   3/270/ 8
Buoy 41010       0850   74 74  180/ 14/ 16 1017.8S   3/15   2/110/15
St Augustine FL  0900   68 67  360/ 23/ 26 1018.6R


$$



USA.gov is the U.S. government's official web portal to all federal, state and local government web resources and services.